TimeAKST,TemperatureF,Dew PointF,Humidity,Sea Level PressureIn,VisibilityMPH,Wind Direction,Wind SpeedMPH,Gust SpeedMPH,PrecipitationIn,Events,Conditions,WindDirDegrees,DateUTC
12:53 AM,41.0,41.0,100,30.05,9.0,SE,24.2,36.8,0.08,Rain,Light Rain,140,2014-01-01 09:53:00
1:53 AM,41.0,41.0,100,30.04,7.0,SE,19.6,36.8,0.11,Rain,Rain,140,2014-01-01 10:53:00
2:29 AM,41.0,41.0,100,30.02,7.0,SE,26.5,36.8,0.07,Rain,Rain,140,2014-01-01 11:29:00
2:53 AM,39.9,39.9,100,30.02,5.0,SE,23.0,33.4,0.11,Rain,Rain,130,2014-01-01 11:53:00
3:30 AM,39.9,39.9,100,29.99,5.0,SE,23.0,34.5,0.06,Rain,Light Rain,130,2014-01-01 12:30:00
3:34 AM,39.9,39.9,100,30.00,5.0,ESE,19.6,33.4,0.06,Rain,Light Rain,120,2014-01-01 12:34:00
3:41 AM,39.9,39.9,100,29.99,5.0,ESE,21.9,28.8,0.07,Rain,Light Rain,120,2014-01-01 12:41:00
3:53 AM,39.9,39.9,100,29.99,4.0,ESE,21.9,29.9,0.08,Rain,Light Rain,120,2014-01-01 12:53:00
4:01 AM,39.0,39.0,100,29.97,4.0,SE,23.0,29.9,0.01,Rain,Light Rain,130,2014-01-01 13:01:00
4:53 AM,39.9,39.9,100,29.96,6.0,ESE,19.6,27.6,0.04,Rain,Rain,110,2014-01-01 13:53:00
5:53 AM,39.9,39.9,100,29.94,6.0,SE,19.6,-,0.14,Rain,Rain,130,2014-01-01 14:53:00
6:22 AM,41.0,41.0,100,29.92,5.0,SE,23.0,38.0,0.06,Rain,Rain,140,2014-01-01 15:22:00
6:53 AM,41.0,41.0,100,29.91,4.0,SE,19.6,28.8,0.20,Rain,Rain,130,2014-01-01 15:53:00
7:03 AM,41.0,41.0,100,29.89,5.0,SE,20.7,35.7,0.02,Rain,Rain,140,2014-01-01 16:03:00
7:13 AM,42.1,42.1,100,29.89,5.0,SE,26.5,40.3,0.04,Rain,Rain,130,2014-01-01 16:13:00
7:53 AM,42.1,42.1,100,29.88,5.0,SE,21.9,38.0,0.17,Rain,Rain,140,2014-01-01 16:53:00
8:53 AM,42.1,42.1,100,29.87,4.0,SE,28.8,41.4,0.18,Rain,Rain,140,2014-01-01 17:53:00
9:38 AM,42.1,42.1,100,29.86,2.5,SE,24.2,39.1,0.14,Rain,Rain,140,2014-01-01 18:38:00
9:53 AM,42.1,42.1,100,29.87,3.0,SE,28.8,46.0,0.16,Rain,Rain,140,2014-01-01 18:53:00
10:03 AM,42.1,42.1,100,29.87,2.5,SE,24.2,42.6,0.03,Rain,Rain,140,2014-01-01 19:03:00
10:53 AM,42.1,42.1,100,29.86,2.0,SE,25.3,36.8,0.15,Rain,Rain,140,2014-01-01 19:53:00
11:04 AM,42.1,42.1,100,29.85,2.0,SE,24.2,43.7,0.04,Rain,Rain,140,2014-01-01 20:04:00
11:34 AM,42.1,42.1,100,29.84,3.0,SE,24.2,38.0,0.12,Rain,Rain,140,2014-01-01 20:34:00
11:53 AM,42.1,42.1,100,29.85,2.5,SSE,20.7,36.8,0.15,Rain,Rain,150,2014-01-01 20:53:00
12:37 PM,42.1,42.1,100,29.85,1.8,SSE,18.4,32.2,0.11,Rain,Light Rain,150,2014-01-01 21:37:00
12:53 PM,42.1,42.1,100,29.86,2.0,SSE,21.9,39.1,0.15,Rain,Rain,150,2014-01-01 21:53:00
1:39 PM,42.1,42.1,100,29.87,1.8,SSE,15.0,27.6,0.11,Rain,Rain,160,2014-01-01 22:39:00
1:53 PM,42.1,-9999,N/A,29.87,1.5,SSE,19.6,31.1,0.15,Rain,Rain,150,2014-01-01 22:53:00
2:08 PM,42.1,42.1,100,29.86,2.0,SSE,16.1,31.1,0.04,Rain,Rain,150,2014-01-01 23:08:00
2:34 PM,42.1,42.1,100,29.87,5.0,South,10.4,20.7,0.08,Rain,Light Rain,170,2014-01-01 23:34:00
2:53 PM,42.1,42.1,100,29.89,10.0,South,10.4,-,0.08,,Overcast,180,2014-01-01 23:53:00
3:04 PM,41.0,41.0,100,29.88,10.0,Variable,6.9,-,N/A,,Overcast,0,2014-01-02 00:04:00
3:09 PM,41.0,-9999,N/A,29.89,10.0,SW,5.8,-,N/A,,Overcast,220,2014-01-02 00:09:00
3:24 PM,41.0,-9999,N/A,29.90,7.0,SW,8.1,-,0.00,Rain,Light Rain,230,2014-01-02 00:24:00
3:38 PM,41.0,41.0,100,29.91,10.0,Variable,5.8,-,0.00,,Overcast,0,2014-01-02 00:38:00
3:53 PM,39.9,39.9,100,29.93,10.0,West,8.1,-,0.00,Rain,Light Rain,270,2014-01-02 00:53:00
4:19 PM,39.9,39.9,100,29.93,10.0,West,6.9,-,0.00,,Overcast,280,2014-01-02 01:19:00
4:53 PM,39.9,39.9,100,29.95,10.0,NW,4.6,-,0.00,,Overcast,320,2014-01-02 01:53:00
5:53 PM,39.0,39.0,100,29.97,10.0,NW,3.5,-,N/A,,Clear,310,2014-01-02 02:53:00
6:53 PM,37.0,37.0,100,29.99,10.0,North,4.6,-,N/A,,Clear,10,2014-01-02 03:53:00
7:53 PM,37.0,37.0,100,30.00,10.0,Calm,Calm,-,N/A,,Mostly Cloudy,0,2014-01-02 04:53:00
8:53 PM,37.0,-9999,N/A,29.99,10.0,North,4.6,-,N/A,,Clear,350,2014-01-02 05:53:00
9:53 PM,35.1,-9999,N/A,29.99,10.0,Calm,Calm,-,N/A,,Partly Cloudy,0,2014-01-02 06:53:00
10:53 PM,35.1,-9999,N/A,29.98,10.0,NNW,3.5,-,N/A,,Clear,330,2014-01-02 07:53:00
11:53 PM,36.0,-9999,N/A,29.97,10.0,NNW,3.5,-,N/A,,Clear,340,2014-01-02 08:53:00